Time,TemperatureF,DewpointF,PressureIn,WindDirection,WindDirectionDegrees,WindSpeedMPH,WindSpeedGustMPH,Humidity,HourlyPrecipIn,Conditions,Clouds,dailyrainin,SoftwareType,DateUTC
2013-04-10 00:00:00,20.3,1.4,27.49,North,349,10.5,10.5,43,0.00,,---,0.00,VWS V14.01,2013-04-10 05:00:00,
2013-04-10 00:05:00,20.3,1.4,27.49,NNW,332,15.0,15.0,43,0.00,,---,0.00,VWS V14.01,2013-04-10 05:05:00,
2013-04-10 00:10:00,20.1,1.2,27.49,North,353,10.5,10.5,43,0.00,,---,0.00,VWS V14.01,2013-04-10 05:10:00,
2013-04-10 00:15:00,20.3,1.4,27.52,NNW,346,7.6,10.1,43,0.00,,---,0.00,VWS V14.01,2013-04-10 05:15:00,
2013-04-10 00:20:00,20.3,1.4,27.52,NNW,337,7.6,10.5,43,0.00,,---,0.00,VWS V14.01,2013-04-10 05:20:00,
2013-04-10 00:25:00,20.3,1.4,27.52,North,353,11.0,12.8,43,0.00,,---,0.00,VWS V14.01,2013-04-10 05:25:00,
2013-04-10 00:30:00,20.3,1.4,27.52,North,349,10.1,10.1,43,0.00,,---,0.00,VWS V14.01,2013-04-10 05:30:00,
2013-04-10 00:35:00,20.3,1.4,27.52,NW,323,10.1,10.1,43,0.00,,---,0.00,VWS V14.01,2013-04-10 05:35:00,
2013-04-10 00:40:00,20.3,1.4,27.52,North,350,9.6,13.2,43,0.00,,---,0.00,VWS V14.01,2013-04-10 05:40:00,
2013-04-10 00:45:00,20.5,1.5,27.52,NNW,343,6.7,13.2,43,0.00,,---,0.00,VWS V14.01,2013-04-10 05:45:00,
2013-04-10 00:50:00,20.5,1.5,27.52,North,353,8.7,8.7,43,0.00,,---,0.00,VWS V14.01,2013-04-10 05:50:00,
2013-04-10 00:55:00,20.5,1.5,27.52,North,350,7.6,11.0,43,0.00,,---,0.00,VWS V14.01,2013-04-10 05:55:00,
2013-04-10 01:00:00,20.5,1.5,27.52,North,0,7.6,8.7,43,0.00,,---,0.00,VWS V14.01,2013-04-10 06:00:00,
2013-04-10 01:05:00,20.7,1.7,27.52,North,7,7.6,10.5,43,0.00,,---,0.00,VWS V14.01,2013-04-10 06:05:00,
2013-04-10 01:10:00,20.7,1.7,27.52,NNW,343,11.0,11.0,43,0.00,,---,0.00,VWS V14.01,2013-04-10 06:10:00,
2013-04-10 01:15:00,20.7,1.7,27.55,North,357,8.3,8.7,43,0.00,,---,0.00,VWS V14.01,2013-04-10 06:15:00,
2013-04-10 01:20:00,20.8,1.9,27.55,North,353,7.6,9.6,43,0.00,,---,0.00,VWS V14.01,2013-04-10 06:20:00,
2013-04-10 01:25:00,20.8,1.9,27.55,North,353,7.6,10.1,43,0.00,,---,0.00,VWS V14.01,2013-04-10 06:25:00,
2013-04-10 01:30:00,20.8,1.9,27.52,North,353,9.2,10.5,43,0.00,,---,0.00,VWS V14.01,2013-04-10 06:30:00,
2013-04-10 01:35:00,20.7,1.7,27.52,North,353,8.1,8.1,43,0.00,,---,0.00,VWS V14.01,2013-04-10 06:35:00,
2013-04-10 01:40:00,20.7,1.7,27.52,North,350,10.1,10.1,43,0.00,,---,0.00,VWS V14.01,2013-04-10 06:40:00,
2013-04-10 01:45:00,20.7,1.7,27.52,North,353,6.3,8.1,43,0.00,,---,0.00,VWS V14.01,2013-04-10 06:45:00,
2013-04-10 01:50:00,20.7,1.7,27.52,North,350,8.3,10.1,43,0.00,,---,0.00,VWS V14.01,2013-04-10 06:50:00,
2013-04-10 01:55:00,20.5,1.5,27.52,North,353,8.1,8.3,43,0.00,,---,0.00,VWS V14.01,2013-04-10 06:55:00,
2013-04-10 02:00:00,20.5,1.5,27.52,North,350,8.3,11.0,43,0.00,,---,0.00,VWS V14.01,2013-04-10 07:00:00,
2013-04-10 02:05:00,20.5,1.5,27.52,North,353,5.4,5.4,43,0.00,,---,0.00,VWS V14.01,2013-04-10 07:05:00,
2013-04-10 02:10:00,20.5,1.5,27.52,NNE,21,8.1,8.1,43,0.00,,---,0.00,VWS V14.01,2013-04-10 07:10:00,
2013-04-10 02:15:00,20.7,1.7,27.52,NNW,335,8.1,8.7,43,0.00,,---,0.00,VWS V14.01,2013-04-10 07:15:00,
2013-04-10 02:20:00,20.5,1.5,27.52,North,353,11.4,11.4,43,0.00,,---,0.00,VWS V14.01,2013-04-10 07:20:00,
2013-04-10 02:25:00,20.7,1.7,27.52,NNW,345,8.1,8.1,43,0.00,,---,0.00,VWS V14.01,2013-04-10 07:25:00,
2013-04-10 02:30:00,20.7,1.7,27.49,North,353,14.5,14.5,43,0.00,,---,0.00,VWS V14.01,2013-04-10 07:30:00,
2013-04-10 02:35:00,20.7,1.7,27.49,North,350,6.3,11.0,43,0.00,,---,0.00,VWS V14.01,2013-04-10 07:35:00,
2013-04-10 02:40:00,20.8,1.9,27.49,North,0,5.8,8.3,43,0.00,,---,0.00,VWS V14.01,2013-04-10 07:40:00,
2013-04-10 02:45:00,20.8,1.9,27.52,NNW,345,8.3,8.3,43,0.00,,---,0.00,VWS V14.01,2013-04-10 07:45:00,
2013-04-10 02:50:00,20.8,1.9,27.52,NNW,330,10.1,10.1,43,0.00,,---,0.00,VWS V14.01,2013-04-10 07:50:00,
2013-04-10 02:55:00,20.7,1.7,27.52,North,353,8.1,10.1,43,0.00,,---,0.00,VWS V14.01,2013-04-10 07:55:00,
2013-04-10 03:00:00,20.7,1.7,27.49,North,353,10.1,10.5,43,0.00,,---,0.00,VWS V14.01,2013-04-10 08:00:00,
2013-04-10 03:05:00,20.8,1.9,27.49,NNW,346,7.6,12.3,43,0.00,,---,0.00,VWS V14.01,2013-04-10 08:05:00,
2013-04-10 03:10:00,20.7,1.7,27.49,North,357,10.5,10.5,43,0.00,,---,0.00,VWS V14.01,2013-04-10 08:10:00,
2013-04-10 03:15:00,20.7,1.7,27.49,North,353,6.3,10.1,43,0.00,,---,0.00,VWS V14.01,2013-04-10 08:15:00,
2013-04-10 03:20:00,20.8,1.9,27.49,North,353,12.3,12.3,43,0.00,,---,0.00,VWS V14.01,2013-04-10 08:20:00,
2013-04-10 03:25:00,20.7,1.7,27.49,North,357,8.1,8.1,43,0.00,,---,0.00,VWS V14.01,2013-04-10 08:25:00,
2013-04-10 03:30:00,20.7,1.7,27.46,North,353,11.0,12.3,43,0.00,,---,0.00,VWS V14.01,2013-04-10 08:30:00,
2013-04-10 03:35:00,20.7,1.7,27.46,North,353,7.6,10.1,43,0.00,,---,0.00,VWS V14.01,2013-04-10 08:35:00,
2013-04-10 03:40:00,20.7,1.7,27.46,North,353,8.7,8.7,43,0.00,,---,0.00,VWS V14.01,2013-04-10 08:40:00,
2013-04-10 03:45:00,20.8,1.9,27.49,NNE,13,6.7,6.7,43,0.00,,---,0.00,VWS V14.01,2013-04-10 08:45:00,
2013-04-10 03:50:00,20.8,1.9,27.49,North,7,8.3,8.3,43,0.00,,---,0.00,VWS V14.01,2013-04-10 08:50:00,
2013-04-10 03:55:00,20.8,1.9,27.49,North,0,5.8,8.1,43,0.00,,---,0.00,VWS V14.01,2013-04-10 08:55:00,
2013-04-10 04:00:00,20.8,1.9,27.52,North,0,8.1,8.1,43,0.00,,---,0.00,VWS V14.01,2013-04-10 09:00:00,
2013-04-10 04:05:00,20.8,1.9,27.52,North,353,7.2,11.0,43,0.00,,---,0.00,VWS V14.01,2013-04-10 09:05:00,
2013-04-10 04:10:00,20.8,1.9,27.52,North,350,7.2,7.2,43,0.00,,---,0.00,VWS V14.01,2013-04-10 09:10:00,
2013-04-10 04:15:00,20.8,1.9,27.49,NNW,346,7.6,8.3,43,0.00,,---,0.00,VWS V14.01,2013-04-10 09:15:00,
2013-04-10 04:20:00,20.8,1.9,27.49,North,353,7.6,9.2,43,0.00,,---,0.00,VWS V14.01,2013-04-10 09:20:00,
2013-04-10 04:25:00,20.8,1.9,27.49,North,353,8.7,10.5,43,0.00,,---,0.00,VWS V14.01,2013-04-10 09:25:00,
2013-04-10 04:30:00,20.8,1.9,27.49,North,353,11.0,11.0,43,0.00,,---,0.00,VWS V14.01,2013-04-10 09:30:00,
2013-04-10 04:35:00,20.8,1.9,27.49,North,353,8.3,8.7,43,0.00,,---,0.00,VWS V14.01,2013-04-10 09:35:00,
2013-04-10 04:40:00,20.8,1.9,27.49,North,353,8.7,8.7,43,0.00,,---,0.00,VWS V14.01,2013-04-10 09:40:00,
2013-04-10 04:45:00,20.8,1.9,27.49,WNW,302,10.1,10.1,43,0.00,,---,0.00,VWS V14.01,2013-04-10 09:45:00,
2013-04-10 04:50:00,20.8,1.9,27.49,North,353,7.6,11.9,43,0.00,,---,0.00,VWS V14.01,2013-04-10 09:50:00,
2013-04-10 04:55:00,20.8,1.9,27.49,North,349,8.7,12.3,43,0.00,,---,0.00,VWS V14.01,2013-04-10 09:55:00,
2013-04-10 05:00:00,20.7,1.7,27.49,North,353,11.9,11.9,43,0.00,,---,0.00,VWS V14.01,2013-04-10 10:00:00,
2013-04-10 05:05:00,20.7,1.7,27.49,North,353,7.6,7.6,43,0.00,,---,0.00,VWS V14.01,2013-04-10 10:05:00,
2013-04-10 05:10:00,20.7,1.7,27.49,North,353,6.3,8.3,43,0.00,,---,0.00,VWS V14.01,2013-04-10 10:10:00,
2013-04-10 05:15:00,20.7,1.7,27.46,North,353,12.3,12.3,43,0.00,,---,0.00,VWS V14.01,2013-04-10 10:15:00,
2013-04-10 05:20:00,20.7,1.7,27.46,North,349,7.2,8.3,43,0.00,,---,0.00,VWS V14.01,2013-04-10 10:20:00,
2013-04-10 05:25:00,20.7,1.7,27.46,North,353,8.3,10.1,43,0.00,,---,0.00,VWS V14.01,2013-04-10 10:25:00,
2013-04-10 05:30:00,20.5,1.5,27.43,NNW,346,7.6,10.5,43,0.00,,---,0.00,VWS V14.01,2013-04-10 10:30:00,
2013-04-10 05:35:00,20.7,1.7,27.43,North,353,11.9,11.9,43,0.00,,---,0.00,VWS V14.01,2013-04-10 10:35:00,
2013-04-10 05:40:00,20.5,1.5,27.43,NNW,339,11.0,11.0,43,0.00,,---,0.00,VWS V14.01,2013-04-10 10:40:00,
2013-04-10 05:45:00,20.7,1.7,27.43,NW,316,6.3,10.1,43,0.00,,---,0.00,VWS V14.01,2013-04-10 10:45:00,
2013-04-10 05:50:00,20.5,1.5,27.46,North,350,7.6,10.5,43,0.00,,---,0.00,VWS V14.01,2013-04-10 10:50:00,
2013-04-10 05:55:00,20.5,1.5,27.46,North,0,7.2,7.6,43,0.00,,---,0.00,VWS V14.01,2013-04-10 10:55:00,
2013-04-10 06:00:00,20.5,1.5,27.46,North,353,8.1,8.3,43,0.00,,---,0.00,VWS V14.01,2013-04-10 11:00:00,
2013-04-10 06:05:00,20.5,1.5,27.46,NNW,333,8.7,8.7,43,0.00,,---,0.00,VWS V14.01,2013-04-10 11:05:00,
2013-04-10 06:10:00,20.5,1.5,27.46,North,353,9.2,9.2,43,0.00,,---,0.00,VWS V14.01,2013-04-10 11:10:00,
2013-04-10 06:15:00,20.5,1.5,27.49,North,353,8.1,8.1,43,0.00,,---,0.00,VWS V14.01,2013-04-10 11:15:00,
2013-04-10 06:20:00,20.7,1.7,27.49,North,353,4.9,8.7,43,0.00,,---,0.00,VWS V14.01,2013-04-10 11:20:00,
2013-04-10 06:25:00,20.7,1.7,27.49,NNW,327,8.7,8.7,43,0.00,,---,0.00,VWS V14.01,2013-04-10 11:25:00,
2013-04-10 06:30:00,20.7,1.7,27.49,North,353,8.7,8.7,43,0.00,,---,0.00,VWS V14.01,2013-04-10 11:30:00,
2013-04-10 06:35:00,20.7,1.7,27.49,WNW,289,8.1,8.7,43,0.00,,---,0.00,VWS V14.01,2013-04-10 11:35:00,
2013-04-10 06:40:00,20.5,1.5,27.49,North,353,10.1,10.5,43,0.00,,---,0.00,VWS V14.01,2013-04-10 11:40:00,
2013-04-10 06:45:00,20.5,1.5,27.49,NNW,345,8.3,8.3,43,0.00,,---,0.00,VWS V14.01,2013-04-10 11:45:00,
2013-04-10 06:50:00,20.7,1.7,27.49,North,0,5.8,10.1,43,0.00,,---,0.00,VWS V14.01,2013-04-10 11:50:00,
2013-04-10 06:55:00,20.7,1.7,27.49,NW,314,8.7,8.7,43,0.00,,---,0.00,VWS V14.01,2013-04-10 11:55:00,
2013-04-10 07:00:00,20.7,1.7,27.52,North,0,8.1,8.1,43,0.00,,---,0.00,VWS V14.01,2013-04-10 12:00:00,
2013-04-10 07:05:00,20.7,1.7,27.52,North,357,5.8,5.8,43,0.00,,---,0.00,VWS V14.01,2013-04-10 12:05:00,
2013-04-10 07:10:00,20.7,1.7,27.52,North,0,6.3,8.7,43,0.00,,---,0.00,VWS V14.01,2013-04-10 12:10:00,
2013-04-10 07:15:00,20.7,1.7,27.49,North,0,4.9,7.6,43,0.00,,---,0.00,VWS V14.01,2013-04-10 12:15:00,
2013-04-10 07:20:00,20.7,1.7,27.49,North,357,7.6,8.3,43,0.00,,---,0.00,VWS V14.01,2013-04-10 12:20:00,
2013-04-10 07:25:00,20.7,1.7,27.49,NNW,344,8.1,10.1,43,0.00,,---,0.00,VWS V14.01,2013-04-10 12:25:00,
2013-04-10 07:30:00,20.7,1.7,27.49,NNW,340,10.5,10.5,43,0.00,,---,0.00,VWS V14.01,2013-04-10 12:30:00,
2013-04-10 07:35:00,20.7,1.7,27.49,North,0,7.6,7.6,43,0.00,,---,0.00,VWS V14.01,2013-04-10 12:35:00,
2013-04-10 07:40:00,20.7,1.7,27.49,North,357,6.7,8.1,43,0.00,,---,0.00,VWS V14.01,2013-04-10 12:40:00,
2013-04-10 07:45:00,20.7,1.7,27.49,NW,321,8.3,8.3,43,0.00,,---,0.00,VWS V14.01,2013-04-10 12:45:00,
2013-04-10 07:50:00,20.7,1.7,27.49,NW,326,11.0,11.0,43,0.00,,---,0.00,VWS V14.01,2013-04-10 12:50:00,
2013-04-10 07:55:00,20.7,1.7,27.49,NNW,332,8.3,8.7,43,0.00,,---,0.00,VWS V14.01,2013-04-10 12:55:00,
2013-04-10 08:00:00,20.8,1.9,27.49,North,0,10.1,12.3,43,0.00,,---,0.00,VWS V14.01,2013-04-10 13:00:00,
2013-04-10 08:05:00,20.8,1.9,27.49,WNW,297,10.1,10.1,43,0.00,,---,0.00,VWS V14.01,2013-04-10 13:05:00,
2013-04-10 08:10:00,20.8,1.9,27.49,North,353,5.4,5.4,43,0.00,,---,0.00,VWS V14.01,2013-04-10 13:10:00,
2013-04-10 08:15:00,21.0,2.0,27.49,North,2,7.6,10.5,43,0.00,,---,0.00,VWS V14.01,2013-04-10 13:15:00,
2013-04-10 08:20:00,21.0,2.0,27.49,North,353,8.3,8.3,43,0.00,,---,0.00,VWS V14.01,2013-04-10 13:20:00,
2013-04-10 08:25:00,21.0,2.0,27.49,North,357,7.6,12.8,43,0.00,,---,0.00,VWS V14.01,2013-04-10 13:25:00,
2013-04-10 08:30:00,21.2,2.2,27.49,NW,306,10.5,10.5,43,0.00,,---,0.00,VWS V14.01,2013-04-10 13:30:00,
2013-04-10 08:35:00,21.2,2.2,27.49,North,0,8.1,10.1,43,0.00,,---,0.00,VWS V14.01,2013-04-10 13:35:00,
2013-04-10 08:40:00,21.2,2.2,27.49,North,0,6.3,6.3,43,0.00,,---,0.00,VWS V14.01,2013-04-10 13:40:00,
2013-04-10 08:45:00,21.6,2.0,27.49,NNW,328,11.0,12.3,42,0.00,,---,0.00,VWS V14.01,2013-04-10 13:45:00,
2013-04-10 08:50:00,21.4,1.9,27.49,North,0,8.7,8.7,42,0.00,,---,0.00,VWS V14.01,2013-04-10 13:50:00,
2013-04-10 08:55:00,21.7,2.2,27.49,North,0,8.3,8.3,42,0.00,,---,0.00,VWS V14.01,2013-04-10 13:55:00,
2013-04-10 09:00:00,21.9,2.4,27.49,North,0,13.2,13.2,42,0.00,,---,0.00,VWS V14.01,2013-04-10 14:00:00,
2013-04-10 09:05:00,21.9,2.4,27.49,North,353,11.0,11.0,42,0.00,,---,0.00,VWS V14.01,2013-04-10 14:05:00,
2013-04-10 09:10:00,21.9,2.4,27.49,North,353,15.0,15.0,42,0.00,,---,0.00,VWS V14.01,2013-04-10 14:10:00,
2013-04-10 09:15:00,22.3,2.7,27.49,NW,307,8.3,8.3,42,0.00,,---,0.00,VWS V14.01,2013-04-10 14:15:00,
2013-04-10 09:20:00,22.3,2.7,27.49,North,1,9.6,9.6,42,0.00,,---,0.00,VWS V14.01,2013-04-10 14:20:00,
2013-04-10 09:25:00,22.6,3.0,27.49,North,353,8.7,10.1,42,0.00,,---,0.00,VWS V14.01,2013-04-10 14:25:00,
2013-04-10 09:30:00,22.8,3.2,27.49,North,357,8.3,8.3,42,0.00,,---,0.00,VWS V14.01,2013-04-10 14:30:00,
2013-04-10 09:35:00,22.8,3.2,27.49,NNW,330,8.7,13.6,42,0.00,,---,0.00,VWS V14.01,2013-04-10 14:35:00,
2013-04-10 09:40:00,23.0,3.3,27.49,North,353,11.0,11.0,42,0.00,,---,0.00,VWS V14.01,2013-04-10 14:40:00,
2013-04-10 09:45:00,23.5,3.8,27.49,NNW,340,8.3,8.3,42,0.00,,---,0.00,VWS V14.01,2013-04-10 14:45:00,
2013-04-10 09:50:00,23.7,4.0,27.49,North,357,10.1,10.1,42,0.00,,---,0.00,VWS V14.01,2013-04-10 14:50:00,
2013-04-10 09:55:00,23.7,4.0,27.49,North,0,12.3,15.0,42,0.00,,---,0.00,VWS V14.01,2013-04-10 14:55:00,
2013-04-10 10:00:00,24.3,4.5,27.49,North,353,8.1,8.1,42,0.00,,---,0.00,VWS V14.01,2013-04-10 15:00:00,
2013-04-10 10:05:00,24.4,4.7,27.49,North,349,10.1,10.5,42,0.00,,---,0.00,VWS V14.01,2013-04-10 15:05:00,
2013-04-10 10:10:00,24.6,4.8,27.49,NNW,346,8.7,8.7,42,0.00,,---,0.00,VWS V14.01,2013-04-10 15:10:00,
2013-04-10 10:15:00,24.4,4.7,27.49,NNW,342,10.1,10.5,42,0.00,,---,0.00,VWS V14.01,2013-04-10 15:15:00,
2013-04-10 10:20:00,24.8,5.0,27.49,NNW,341,10.1,10.1,42,0.00,,---,0.00,VWS V14.01,2013-04-10 15:20:00,
2013-04-10 10:25:00,24.6,4.8,27.49,NW,310,9.6,9.6,42,0.00,,---,0.00,VWS V14.01,2013-04-10 15:25:00,
2013-04-10 10:30:00,25.3,5.5,27.46,North,353,8.3,8.3,42,0.00,,---,0.00,VWS V14.01,2013-04-10 15:30:00,
2013-04-10 10:35:00,25.3,5.5,27.46,NNW,343,8.7,8.7,42,0.00,,---,0.00,VWS V14.01,2013-04-10 15:35:00,
2013-04-10 10:40:00,25.2,5.3,27.46,NNW,343,9.2,9.2,42,0.00,,---,0.00,VWS V14.01,2013-04-10 15:40:00,
2013-04-10 10:45:00,25.3,5.5,27.49,NNW,342,8.1,12.3,42,0.00,,---,0.00,VWS V14.01,2013-04-10 15:45:00,
2013-04-10 10:50:00,25.9,6.0,27.49,North,353,6.7,6.7,42,0.00,,---,0.00,VWS V14.01,2013-04-10 15:50:00,
2013-04-10 10:55:00,25.7,5.8,27.49,NNW,340,11.0,11.0,42,0.00,,---,0.00,VWS V14.01,2013-04-10 15:55:00,
2013-04-10 11:00:00,25.9,6.0,27.49,NNW,343,10.5,10.5,42,0.00,,---,0.00,VWS V14.01,2013-04-10 16:00:00,
2013-04-10 11:05:00,25.5,5.6,27.49,NNW,339,10.5,10.5,42,0.00,,---,0.00,VWS V14.01,2013-04-10 16:05:00,
2013-04-10 11:10:00,26.1,6.1,27.49,NNW,344,7.6,9.2,42,0.00,,---,0.00,VWS V14.01,2013-04-10 16:10:00,
2013-04-10 11:15:00,25.9,6.0,27.49,North,353,8.3,10.5,42,0.00,,---,0.00,VWS V14.01,2013-04-10 16:15:00,
2013-04-10 11:20:00,26.1,6.1,27.49,North,353,7.6,8.7,42,0.00,,---,0.00,VWS V14.01,2013-04-10 16:20:00,
2013-04-10 11:25:00,26.8,6.2,27.49,NNW,344,8.1,11.0,41,0.00,,---,0.00,VWS V14.01,2013-04-10 16:25:00,
2013-04-10 11:30:00,26.6,6.6,27.49,NNW,334,8.1,8.1,42,0.00,,---,0.00,VWS V14.01,2013-04-10 16:30:00,
2013-04-10 11:35:00,26.4,6.4,27.49,North,0,8.1,8.1,42,0.00,,---,0.00,VWS V14.01,2013-04-10 16:35:00,
2013-04-10 11:40:00,26.4,6.4,27.49,NNW,331,10.1,10.5,42,0.00,,---,0.00,VWS V14.01,2013-04-10 16:40:00,
2013-04-10 11:45:00,27.0,6.4,27.49,North,0,10.1,11.0,41,0.00,,---,0.00,VWS V14.01,2013-04-10 16:45:00,
2013-04-10 11:50:00,27.0,6.4,27.49,North,353,8.7,8.7,41,0.00,,---,0.00,VWS V14.01,2013-04-10 16:50:00,
2013-04-10 11:55:00,27.3,6.7,27.49,North,353,7.6,7.6,41,0.00,,---,0.00,VWS V14.01,2013-04-10 16:55:00,
2013-04-10 12:00:00,27.9,7.2,27.49,North,353,7.6,10.5,41,0.00,,---,0.00,VWS V14.01,2013-04-10 17:00:00,
2013-04-10 12:05:00,27.5,6.9,27.49,North,350,7.6,7.6,41,0.00,,---,0.00,VWS V14.01,2013-04-10 17:05:00,
2013-04-10 12:10:00,27.0,6.4,27.49,NW,316,8.1,8.1,41,0.00,,---,0.00,VWS V14.01,2013-04-10 17:10:00,
2013-04-10 12:15:00,27.1,6.6,27.49,North,353,10.5,10.5,41,0.00,,---,0.00,VWS V14.01,2013-04-10 17:15:00,
2013-04-10 12:20:00,27.0,6.4,27.49,North,357,8.3,8.3,41,0.00,,---,0.00,VWS V14.01,2013-04-10 17:20:00,
2013-04-10 12:25:00,26.6,6.6,27.49,North,3,7.6,7.6,42,0.00,,---,0.00,VWS V14.01,2013-04-10 17:25:00,
2013-04-10 12:30:00,26.6,6.6,27.49,NNW,329,11.0,11.0,42,0.00,,---,0.00,VWS V14.01,2013-04-10 17:30:00,
2013-04-10 12:35:00,27.0,6.4,27.49,North,357,8.3,8.3,41,0.00,,---,0.00,VWS V14.01,2013-04-10 17:35:00,
2013-04-10 12:40:00,27.0,6.4,27.49,North,357,8.7,12.8,41,0.00,,---,0.00,VWS V14.01,2013-04-10 17:40:00,
2013-04-10 12:45:00,27.0,6.4,27.49,North,0,8.3,11.0,41,0.00,,---,0.00,VWS V14.01,2013-04-10 17:45:00,
2013-04-10 12:50:00,26.8,6.2,27.49,NW,307,8.7,9.2,41,0.00,,---,0.00,VWS V14.01,2013-04-10 17:50:00,
2013-04-10 12:55:00,27.0,6.4,27.49,NNW,336,8.1,8.1,41,0.00,,---,0.00,VWS V14.01,2013-04-10 17:55:00,
2013-04-10 13:00:00,26.8,6.2,27.49,NNW,340,8.1,8.1,41,0.00,,---,0.00,VWS V14.01,2013-04-10 18:00:00,
2013-04-10 13:05:00,27.1,6.6,27.49,NW,325,8.1,8.1,41,0.00,,---,0.00,VWS V14.01,2013-04-10 18:05:00,
2013-04-10 13:10:00,27.0,6.4,27.49,NNW,333,8.7,8.7,41,0.00,,---,0.00,VWS V14.01,2013-04-10 18:10:00,
2013-04-10 13:15:00,26.6,6.6,27.46,NNW,339,8.3,8.3,42,0.00,,---,0.00,VWS V14.01,2013-04-10 18:15:00,
2013-04-10 13:20:00,27.0,6.4,27.46,North,0,9.2,10.5,41,0.00,,---,0.00,VWS V14.01,2013-04-10 18:20:00,
2013-04-10 13:25:00,27.1,6.6,27.46,NNW,348,8.7,8.7,41,0.00,,---,0.00,VWS V14.01,2013-04-10 18:25:00,
2013-04-10 13:30:00,27.0,6.4,27.46,North,2,5.8,8.1,41,0.00,,---,0.00,VWS V14.01,2013-04-10 18:30:00,
2013-04-10 13:35:00,27.5,6.9,27.46,North,2,10.1,10.1,41,0.00,,---,0.00,VWS V14.01,2013-04-10 18:35:00,
2013-04-10 13:40:00,27.5,6.9,27.46,NNW,343,12.3,12.3,41,0.00,,---,0.00,VWS V14.01,2013-04-10 18:40:00,
2013-04-10 13:45:00,27.1,6.6,27.46,North,7,8.1,8.7,41,0.00,,---,0.00,VWS V14.01,2013-04-10 18:45:00,
2013-04-10 13:50:00,27.7,7.1,27.46,NNW,330,5.8,8.7,41,0.00,,---,0.00,VWS V14.01,2013-04-10 18:50:00,
2013-04-10 13:55:00,28.0,7.4,27.46,NW,317,6.3,6.3,41,0.00,,---,0.00,VWS V14.01,2013-04-10 18:55:00,
2013-04-10 14:00:00,27.7,7.1,27.46,North,353,8.7,8.7,41,0.00,,---,0.00,VWS V14.01,2013-04-10 19:00:00,
2013-04-10 14:05:00,28.6,7.9,27.46,North,353,8.1,8.1,41,0.00,,---,0.00,VWS V14.01,2013-04-10 19:05:00,
2013-04-10 14:10:00,28.6,7.9,27.46,North,0,11.0,11.0,41,0.00,,---,0.00,VWS V14.01,2013-04-10 19:10:00,
2013-04-10 14:15:00,28.4,7.7,27.43,North,1,10.1,10.1,41,0.00,,---,0.00,VWS V14.01,2013-04-10 19:15:00,
2013-04-10 14:20:00,27.9,7.2,27.43,NNW,340,8.1,8.3,41,0.00,,---,0.00,VWS V14.01,2013-04-10 19:20:00,
2013-04-10 14:25:00,27.5,6.9,27.43,NW,321,10.5,10.5,41,0.00,,---,0.00,VWS V14.01,2013-04-10 19:25:00,
2013-04-10 14:30:00,27.9,7.2,27.46,NW,319,7.6,7.6,41,0.00,,---,0.00,VWS V14.01,2013-04-10 19:30:00,
2013-04-10 14:36:00,28.2,7.6,27.46,North,357,8.1,8.1,41,0.00,,---,0.00,VWS V14.01,2013-04-10 19:36:00,
2013-04-10 14:41:00,27.1,6.6,27.46,North,357,7.6,9.2,41,0.00,,---,0.00,VWS V14.01,2013-04-10 19:41:00,
2013-04-10 14:46:00,27.7,7.1,27.46,North,350,7.6,7.6,41,0.00,,---,0.00,VWS V14.01,2013-04-10 19:46:00,
2013-04-10 14:51:00,27.1,6.6,27.46,NNW,338,7.6,7.6,41,0.00,,---,0.00,VWS V14.01,2013-04-10 19:51:00,
2013-04-10 14:56:00,27.1,6.6,27.46,North,357,7.6,8.1,41,0.00,,---,0.00,VWS V14.01,2013-04-10 19:56:00,
2013-04-10 15:01:00,27.0,6.4,27.46,North,353,8.3,8.3,41,0.00,,---,0.00,VWS V14.01,2013-04-10 20:01:00,
2013-04-10 15:06:00,27.5,6.9,27.46,NNW,340,8.7,8.7,41,0.00,,---,0.00,VWS V14.01,2013-04-10 20:06:00,
2013-04-10 15:11:00,27.1,6.6,27.46,North,357,7.6,7.6,41,0.00,,---,0.00,VWS V14.01,2013-04-10 20:11:00,
2013-04-10 15:16:00,27.3,6.7,27.46,NNW,334,8.7,8.7,41,0.00,,---,0.00,VWS V14.01,2013-04-10 20:16:00,
2013-04-10 15:21:00,27.5,6.9,27.46,NNW,327,8.1,8.3,41,0.00,,---,0.00,VWS V14.01,2013-04-10 20:21:00,
2013-04-10 15:26:00,27.5,6.9,27.46,North,349,8.3,10.1,41,0.00,,---,0.00,VWS V14.01,2013-04-10 20:26:00,
2013-04-10 15:31:00,27.1,6.6,27.43,NNW,330,7.6,7.6,41,0.00,,---,0.00,VWS V14.01,2013-04-10 20:31:00,
2013-04-10 15:36:00,27.1,6.6,27.43,NW,318,10.5,11.0,41,0.00,,---,0.00,VWS V14.01,2013-04-10 20:36:00,
2013-04-10 15:41:00,27.1,6.6,27.43,NNW,337,8.7,8.7,41,0.00,,---,0.00,VWS V14.01,2013-04-10 20:41:00,
2013-04-10 15:46:00,27.3,6.7,27.43,NNW,336,8.1,8.3,41,0.00,,---,0.00,VWS V14.01,2013-04-10 20:46:00,
2013-04-10 15:51:00,27.0,6.4,27.43,NNW,337,14.1,14.1,41,0.00,,---,0.00,VWS V14.01,2013-04-10 20:51:00,
2013-04-10 15:56:00,27.1,6.6,27.43,NNW,342,8.7,8.7,41,0.00,,---,0.00,VWS V14.01,2013-04-10 20:56:00,
2013-04-10 16:01:00,27.0,6.4,27.40,North,357,7.6,8.7,41,0.00,,---,0.00,VWS V14.01,2013-04-10 21:01:00,
2013-04-10 16:06:00,27.7,7.1,27.40,NNW,343,7.6,8.1,41,0.00,,---,0.00,VWS V14.01,2013-04-10 21:06:00,
2013-04-10 16:11:00,27.5,6.9,27.40,North,0,8.1,8.1,41,0.00,,---,0.00,VWS V14.01,2013-04-10 21:11:00,
2013-04-10 16:16:00,27.5,6.9,27.40,NNW,345,7.6,9.2,41,0.00,,---,0.00,VWS V14.01,2013-04-10 21:16:00,
2013-04-10 16:21:00,27.9,7.2,27.40,North,0,10.1,10.1,41,0.00,,---,0.00,VWS V14.01,2013-04-10 21:21:00,
2013-04-10 16:26:00,27.9,7.2,27.40,North,0,10.5,12.8,41,0.00,,---,0.00,VWS V14.01,2013-04-10 21:26:00,
2013-04-10 16:31:00,27.9,7.2,27.40,North,3,7.6,8.3,41,0.00,,---,0.00,VWS V14.01,2013-04-10 21:31:00,
2013-04-10 16:36:00,27.7,7.1,27.40,NNW,335,7.6,7.6,41,0.00,,---,0.00,VWS V14.01,2013-04-10 21:36:00,
2013-04-10 16:41:00,27.5,6.9,27.40,NNW,333,8.3,10.5,41,0.00,,---,0.00,VWS V14.01,2013-04-10 21:41:00,
2013-04-10 16:46:00,27.7,7.1,27.40,North,353,8.3,8.3,41,0.00,,---,0.00,VWS V14.01,2013-04-10 21:46:00,
2013-04-10 16:51:00,27.5,6.9,27.40,North,353,6.7,6.7,41,0.00,,---,0.00,VWS V14.01,2013-04-10 21:51:00,
2013-04-10 16:56:00,27.5,6.9,27.40,NNW,340,6.7,6.7,41,0.00,,---,0.00,VWS V14.01,2013-04-10 21:56:00,
2013-04-10 17:01:00,27.7,7.1,27.40,North,353,8.1,8.1,41,0.00,,---,0.00,VWS V14.01,2013-04-10 22:01:00,
2013-04-10 17:06:00,27.1,6.6,27.40,NNW,341,8.7,10.1,41,0.00,,---,0.00,VWS V14.01,2013-04-10 22:06:00,
2013-04-10 17:11:00,27.3,6.7,27.40,North,350,8.7,8.7,41,0.00,,---,0.00,VWS V14.01,2013-04-10 22:11:00,
2013-04-10 17:16:00,27.3,6.7,27.40,North,353,7.6,8.1,41,0.00,,---,0.00,VWS V14.01,2013-04-10 22:16:00,
2013-04-10 17:21:00,27.0,6.4,27.40,NNW,340,7.6,7.6,41,0.00,,---,0.00,VWS V14.01,2013-04-10 22:21:00,
2013-04-10 17:26:00,27.0,6.4,27.40,NNW,348,8.7,8.7,41,0.00,,---,0.00,VWS V14.01,2013-04-10 22:26:00,
2013-04-10 17:31:00,27.0,6.4,27.37,North,353,8.1,8.3,41,0.00,,---,0.00,VWS V14.01,2013-04-10 22:31:00,
2013-04-10 17:36:00,26.8,6.2,27.37,NNW,341,7.6,10.1,41,0.00,,---,0.00,VWS V14.01,2013-04-10 22:36:00,
2013-04-10 17:41:00,27.0,6.4,27.37,NNW,335,8.1,10.5,41,0.00,,---,0.00,VWS V14.01,2013-04-10 22:41:00,
2013-04-10 17:46:00,26.8,6.2,27.37,NNW,338,8.1,11.0,41,0.00,,---,0.00,VWS V14.01,2013-04-10 22:46:00,
2013-04-10 17:51:00,26.8,6.2,27.37,North,0,8.1,8.1,41,0.00,,---,0.00,VWS V14.01,2013-04-10 22:51:00,
2013-04-10 17:56:00,26.6,6.6,27.37,NNW,344,11.0,11.0,42,0.00,,---,0.00,VWS V14.01,2013-04-10 22:56:00,
2013-04-10 18:01:00,26.4,6.4,27.37,NW,326,6.3,6.3,42,0.00,,---,0.00,VWS V14.01,2013-04-10 23:01:00,
2013-04-10 18:06:00,27.0,6.4,27.37,North,349,8.3,13.2,41,0.00,,---,0.00,VWS V14.01,2013-04-10 23:06:00,
2013-04-10 18:11:00,26.4,6.4,27.37,NNW,338,8.7,8.7,42,0.00,,---,0.00,VWS V14.01,2013-04-10 23:11:00,
2013-04-10 18:16:00,26.4,6.4,27.37,North,6,8.7,8.7,42,0.00,,---,0.00,VWS V14.01,2013-04-10 23:16:00,
2013-04-10 18:21:00,26.6,6.6,27.37,North,0,8.3,8.7,42,0.00,,---,0.00,VWS V14.01,2013-04-10 23:21:00,
2013-04-10 18:26:00,26.2,6.3,27.37,NW,316,6.3,6.3,42,0.00,,---,0.00,VWS V14.01,2013-04-10 23:26:00,
2013-04-10 18:31:00,26.2,6.3,27.37,North,0,6.3,11.0,42,0.00,,---,0.00,VWS V14.01,2013-04-10 23:31:00,
2013-04-10 18:36:00,26.2,6.3,27.37,NW,318,7.6,7.6,42,0.00,,---,0.00,VWS V14.01,2013-04-10 23:36:00,
2013-04-10 18:41:00,26.4,6.4,27.37,North,0,10.1,10.1,42,0.00,,---,0.00,VWS V14.01,2013-04-10 23:41:00,
2013-04-10 18:46:00,26.4,6.4,27.37,NNW,341,7.6,8.7,42,0.00,,---,0.00,VWS V14.01,2013-04-10 23:46:00,
2013-04-10 18:52:00,26.4,6.4,27.37,NNW,329,5.8,9.2,42,0.00,,---,0.00,VWS V14.01,2013-04-10 23:52:00,
2013-04-10 18:57:00,26.4,6.4,27.37,NNW,328,6.3,7.6,42,0.00,,---,0.00,VWS V14.01,2013-04-10 23:57:00,
2013-04-10 19:02:00,26.2,6.3,27.37,NNW,331,8.7,10.1,42,0.00,,---,0.00,VWS V14.01,2013-04-11 00:02:00,
2013-04-10 19:07:00,26.1,6.1,27.37,North,357,7.6,8.7,42,0.00,,---,0.00,VWS V14.01,2013-04-11 00:07:00,
2013-04-10 19:12:00,26.1,6.1,27.40,North,353,8.3,10.1,42,0.00,,---,0.00,VWS V14.01,2013-04-11 00:12:00,
2013-04-10 19:17:00,26.1,6.1,27.40,NNW,342,8.7,8.7,42,0.00,,---,0.00,VWS V14.01,2013-04-11 00:17:00,
2013-04-10 19:22:00,26.1,6.1,27.40,West,265,8.1,8.7,42,0.00,,---,0.00,VWS V14.01,2013-04-11 00:22:00,
2013-04-10 19:27:00,25.9,6.0,27.40,NNW,342,10.1,10.1,42,0.00,,---,0.00,VWS V14.01,2013-04-11 00:27:00,
2013-04-10 19:32:00,26.1,6.1,27.40,NNE,14,8.3,8.3,42,0.00,,---,0.00,VWS V14.01,2013-04-11 00:32:00,
2013-04-10 19:37:00,25.7,5.8,27.40,NW,309,8.1,8.1,42,0.00,,---,0.00,VWS V14.01,2013-04-11 00:37:00,
2013-04-10 19:42:00,25.7,5.8,27.37,NNW,342,6.3,8.1,42,0.00,,---,0.00,VWS V14.01,2013-04-11 00:42:00,
2013-04-10 19:48:00,25.3,5.5,27.37,NNW,345,5.8,6.3,42,0.00,,---,0.00,VWS V14.01,2013-04-11 00:48:00,
2013-04-10 19:53:00,25.3,5.5,27.37,NNW,337,8.1,10.1,42,0.00,,---,0.00,VWS V14.01,2013-04-11 00:53:00,
2013-04-10 19:58:00,25.3,5.5,27.37,NNW,336,8.7,8.7,42,0.00,,---,0.00,VWS V14.01,2013-04-11 00:58:00,
2013-04-10 20:03:00,25.3,5.5,27.37,NW,325,8.7,8.7,42,0.00,,---,0.00,VWS V14.01,2013-04-11 01:03:00,
2013-04-10 20:08:00,25.2,5.3,27.37,NNW,338,7.6,12.3,42,0.00,,---,0.00,VWS V14.01,2013-04-11 01:08:00,
2013-04-10 20:13:00,25.0,5.1,27.37,NNW,337,13.2,13.2,42,0.00,,---,0.00,VWS V14.01,2013-04-11 01:13:00,
2013-04-10 20:18:00,24.8,5.0,27.37,NNW,346,5.8,12.8,42,0.00,,---,0.00,VWS V14.01,2013-04-11 01:18:00,
2013-04-10 20:23:00,24.8,5.0,27.37,NNW,329,6.3,8.1,42,0.00,,---,0.00,VWS V14.01,2013-04-11 01:23:00,
2013-04-10 20:28:00,25.0,5.1,27.37,WNW,303,9.2,9.2,42,0.00,,---,0.00,VWS V14.01,2013-04-11 01:28:00,
2013-04-10 20:33:00,24.8,5.0,27.37,NW,313,5.4,5.4,42,0.00,,---,0.00,VWS V14.01,2013-04-11 01:33:00,
2013-04-10 20:38:00,24.8,5.0,27.37,NNW,341,8.1,8.3,42,0.00,,---,0.00,VWS V14.01,2013-04-11 01:38:00,
2013-04-10 20:43:00,24.8,5.0,27.37,NNW,331,6.3,6.3,42,0.00,,---,0.00,VWS V14.01,2013-04-11 01:43:00,
2013-04-10 20:48:00,24.8,5.0,27.37,NNW,332,8.7,8.7,42,0.00,,---,0.00,VWS V14.01,2013-04-11 01:48:00,
2013-04-10 20:53:00,24.8,5.0,27.37,NNW,343,5.4,5.4,42,0.00,,---,0.00,VWS V14.01,2013-04-11 01:53:00,
2013-04-10 20:58:00,25.0,5.1,27.37,WNW,300,5.4,5.4,42,0.00,,---,0.00,VWS V14.01,2013-04-11 01:58:00,
2013-04-10 21:03:00,24.8,5.0,27.37,NNW,330,5.4,5.4,42,0.00,,---,0.00,VWS V14.01,2013-04-11 02:03:00,
2013-04-10 21:08:00,24.6,4.8,27.37,NNW,328,5.8,5.8,42,0.00,,---,0.00,VWS V14.01,2013-04-11 02:08:00,
2013-04-10 21:13:00,24.8,5.0,27.40,NNW,339,5.4,5.4,42,0.00,,---,0.00,VWS V14.01,2013-04-11 02:13:00,
2013-04-10 21:18:00,24.8,5.0,27.40,North,350,5.4,5.4,42,0.00,,---,0.00,VWS V14.01,2013-04-11 02:18:00,
2013-04-10 21:23:00,24.8,5.0,27.40,NNW,344,7.6,7.6,42,0.00,,---,0.00,VWS V14.01,2013-04-11 02:23:00,
2013-04-10 21:28:00,24.6,4.8,27.40,North,0,5.4,5.4,42,0.00,,---,0.00,VWS V14.01,2013-04-11 02:28:00,
2013-04-10 21:33:00,24.6,4.8,27.40,NNW,342,4.0,4.0,42,0.00,,---,0.00,VWS V14.01,2013-04-11 02:33:00,
2013-04-10 21:38:00,24.6,4.8,27.40,NNW,335,4.9,4.9,42,0.00,,---,0.00,VWS V14.01,2013-04-11 02:38:00,
2013-04-10 21:43:00,24.8,5.0,27.40,NW,313,4.0,5.8,42,0.00,,---,0.00,VWS V14.01,2013-04-11 02:43:00,
2013-04-10 21:48:00,24.8,5.0,27.40,NNW,331,4.9,4.9,42,0.00,,---,0.00,VWS V14.01,2013-04-11 02:48:00,
2013-04-10 21:54:00,24.8,5.0,27.40,NNW,332,5.8,5.8,42,0.00,,---,0.00,VWS V14.01,2013-04-11 02:54:00,
2013-04-10 21:59:00,24.8,5.0,27.40,North,0,3.6,3.6,42,0.00,,---,0.00,VWS V14.01,2013-04-11 02:59:00,
2013-04-10 22:04:00,24.6,4.8,27.40,North,350,7.6,7.6,42,0.00,,---,0.00,VWS V14.01,2013-04-11 03:04:00,
2013-04-10 22:09:00,24.6,4.8,27.40,North,11,6.3,8.7,42,0.00,,---,0.00,VWS V14.01,2013-04-11 03:09:00,
2013-04-10 22:14:00,24.4,4.7,27.40,WNW,302,5.8,7.6,42,0.00,,---,0.00,VWS V14.01,2013-04-11 03:14:00,
2013-04-10 22:19:00,24.4,4.7,27.40,NW,324,5.8,7.6,42,0.00,,---,0.00,VWS V14.01,2013-04-11 03:19:00,
2013-04-10 22:24:00,24.4,4.7,27.40,WNW,299,4.5,4.5,42,0.00,,---,0.00,VWS V14.01,2013-04-11 03:24:00,
2013-04-10 22:29:00,24.4,4.7,27.40,WNW,291,5.8,5.8,42,0.00,,---,0.00,VWS V14.01,2013-04-11 03:29:00,
2013-04-10 22:34:00,24.4,4.7,27.40,North,2,5.4,6.3,42,0.00,,---,0.00,VWS V14.01,2013-04-11 03:34:00,
2013-04-10 22:39:00,24.4,4.7,27.40,WNW,294,5.8,5.8,42,0.00,,---,0.00,VWS V14.01,2013-04-11 03:39:00,
2013-04-10 22:44:00,24.3,4.5,27.40,WNW,293,3.6,8.3,42,0.00,,---,0.00,VWS V14.01,2013-04-11 03:44:00,
2013-04-10 22:49:00,24.4,4.7,27.40,NW,315,2.7,4.0,42,0.00,,---,0.00,VWS V14.01,2013-04-11 03:49:00,
2013-04-10 22:55:00,24.3,4.5,27.40,WNW,290,3.1,3.1,42,0.00,,---,0.00,VWS V14.01,2013-04-11 03:55:00,
2013-04-10 23:00:00,23.9,4.2,27.37,West,278,4.0,4.0,42,0.00,,---,0.00,VWS V14.01,2013-04-11 04:00:00,
2013-04-10 23:06:00,23.9,4.2,27.37,NW,319,3.1,5.8,42,0.00,,---,0.00,VWS V14.01,2013-04-11 04:06:00,
2013-04-10 23:11:00,23.7,4.0,27.37,NW,304,2.2,2.2,42,0.00,,---,0.00,VWS V14.01,2013-04-11 04:11:00,
2013-04-10 23:16:00,23.7,4.0,27.37,WNW,293,5.8,5.8,42,0.00,,---,0.00,VWS V14.01,2013-04-11 04:16:00,
2013-04-10 23:21:00,23.7,4.0,27.37,WNW,298,3.6,4.9,42,0.00,,---,0.00,VWS V14.01,2013-04-11 04:21:00,
2013-04-10 23:26:00,23.7,4.0,27.37,WNW,297,2.7,3.6,42,0.00,,---,0.00,VWS V14.01,2013-04-11 04:26:00,
2013-04-10 23:31:00,23.7,4.0,27.37,NW,309,4.0,4.0,42,0.00,,---,0.00,VWS V14.01,2013-04-11 04:31:00,
2013-04-10 23:36:00,23.7,4.0,27.37,WNW,290,5.8,8.1,42,0.00,,---,0.00,VWS V14.01,2013-04-11 04:36:00,
2013-04-10 23:41:00,23.5,3.8,27.37,West,277,6.3,6.3,42,0.00,,---,0.00,VWS V14.01,2013-04-11 04:41:00,
2013-04-10 23:46:00,23.5,3.8,27.37,West,276,3.1,5.8,42,0.00,,---,0.00,VWS V14.01,2013-04-11 04:46:00,
2013-04-10 23:51:00,23.5,3.8,27.37,NW,312,4.0,4.0,42,0.00,,---,0.00,VWS V14.01,2013-04-11 04:51:00,
2013-04-10 23:56:00,23.5,3.8,27.37,WNW,296,8.3,8.3,42,0.00,,---,0.00,VWS V14.01,2013-04-11 04:56:00,